Time,TemperatureF,DewpointF,PressureIn,WindDirection,WindDirectionDegrees,WindSpeedMPH,WindSpeedGustMPH,Humidity,HourlyPrecipIn,Conditions,Clouds,dailyrainin,SoftwareType,DateUTC
2013-06-01 00:03:00,72.0,65.0,29.83,South,180,0.0,0.0,79,0.00,,,0.00,,2013-06-01 04:03:00,
2013-06-01 00:12:00,71.0,65.0,29.82,South,180,0.0,0.0,80,0.00,,,0.00,,2013-06-01 04:12:00,
2013-06-01 00:23:00,71.0,65.0,29.82,South,180,0.0,0.0,80,0.00,,,0.00,,2013-06-01 04:23:00,
2013-06-01 00:33:00,71.0,65.0,29.83,SSE,158,0.0,0.0,81,0.00,,,0.00,,2013-06-01 04:33:00,
2013-06-01 00:42:00,71.0,65.0,29.81,South,180,0.0,0.0,81,0.00,,,0.00,,2013-06-01 04:42:00,
2013-06-01 00:53:00,71.0,65.0,29.81,South,180,0.0,0.0,81,0.00,,,0.00,,2013-06-01 04:53:00,
2013-06-01 01:02:00,70.0,64.0,29.81,South,180,0.0,0.0,82,0.00,,,0.00,,2013-06-01 05:02:00,
2013-06-01 01:12:00,70.0,64.0,29.81,SSE,158,0.0,0.0,82,0.00,,,0.00,,2013-06-01 05:12:00,
2013-06-01 01:22:00,70.0,64.0,29.81,SSE,158,0.0,0.0,82,0.00,,,0.00,,2013-06-01 05:22:00,
2013-06-01 01:32:00,70.0,65.0,29.79,SE,135,0.0,0.0,83,0.00,,,0.00,,2013-06-01 05:32:00,
2013-06-01 01:42:00,70.0,65.0,29.78,South,180,0.0,0.0,83,0.00,,,0.00,,2013-06-01 05:42:00,
2013-06-01 01:52:00,70.0,65.0,29.78,South,180,0.0,0.0,83,0.00,,,0.00,,2013-06-01 05:52:00,
2013-06-01 02:01:00,70.0,65.0,29.78,South,180,0.0,0.0,83,0.00,,,0.00,,2013-06-01 06:01:00,
2013-06-01 02:12:00,70.0,65.0,29.76,SSE,158,0.0,0.0,84,0.00,,,0.00,,2013-06-01 06:12:00,
2013-06-01 02:22:00,70.0,65.0,29.76,SSE,158,0.0,0.0,84,0.00,,,0.00,,2013-06-01 06:22:00,
2013-06-01 02:32:00,70.0,65.0,29.76,SSE,158,0.0,0.0,84,0.00,,,0.00,,2013-06-01 06:32:00,
2013-06-01 02:42:00,69.0,64.0,29.76,South,180,0.0,0.0,84,0.00,,,0.00,,2013-06-01 06:42:00,
2013-06-01 02:52:00,69.0,64.0,29.76,South,180,0.0,0.0,84,0.00,,,0.00,,2013-06-01 06:52:00,
2013-06-01 03:01:00,69.0,64.0,29.77,SSE,158,0.0,0.0,84,0.00,,,0.00,,2013-06-01 07:01:00,
2013-06-01 03:11:00,69.0,64.0,29.76,South,180,0.0,0.0,84,0.00,,,0.00,,2013-06-01 07:11:00,
2013-06-01 03:22:00,69.0,64.0,29.76,South,180,0.0,0.0,84,0.00,,,0.00,,2013-06-01 07:22:00,
2013-06-01 03:32:00,69.0,64.0,29.76,South,180,0.0,0.0,84,0.00,,,0.00,,2013-06-01 07:32:00,
2013-06-01 03:42:00,69.0,64.0,29.74,SSW,203,0.0,0.0,84,0.00,,,0.00,,2013-06-01 07:42:00,
2013-06-01 03:52:00,69.0,64.0,29.74,SSW,203,0.0,0.0,84,0.00,,,0.00,,2013-06-01 07:52:00,
2013-06-01 04:02:00,69.0,64.0,29.74,SSE,158,0.0,0.0,85,0.00,,,0.00,,2013-06-01 08:02:00,
2013-06-01 04:11:00,69.0,64.0,29.75,SSW,203,0.0,0.0,85,0.00,,,0.00,,2013-06-01 08:11:00,
2013-06-01 04:21:00,69.0,64.0,29.75,SSW,203,0.0,0.0,85,0.00,,,0.00,,2013-06-01 08:21:00,
2013-06-01 04:32:00,69.0,64.0,29.76,SSE,158,0.0,0.0,85,0.00,,,0.00,,2013-06-01 08:32:00,
2013-06-01 04:42:00,69.0,64.0,29.75,SSW,203,0.0,0.0,85,0.00,,,0.00,,2013-06-01 08:42:00,
2013-06-01 04:52:00,69.0,64.0,29.75,SSW,203,0.0,0.0,85,0.00,,,0.00,,2013-06-01 08:52:00,
2013-06-01 05:01:00,70.0,65.0,29.75,South,180,0.0,0.0,84,0.00,,,0.00,,2013-06-01 09:01:00,
2013-06-01 05:12:00,70.0,65.0,29.75,South,180,0.0,0.0,84,0.00,,,0.00,,2013-06-01 09:12:00,
2013-06-01 05:21:00,70.0,64.0,29.75,SSW,203,1.0,0.0,82,0.00,,,0.00,,2013-06-01 09:21:00,
2013-06-01 05:33:00,69.0,63.0,29.76,WSW,248,5.0,7.0,81,0.02,,,0.02,,2013-06-01 09:33:00,
2013-06-01 05:42:00,68.0,63.0,29.75,South,180,8.0,9.0,84,0.06,,,0.06,,2013-06-01 09:42:00,
2013-06-01 05:53:00,68.0,63.0,29.75,South,180,8.0,9.0,84,0.06,,,0.06,,2013-06-01 09:53:00,
2013-06-01 06:02:00,67.0,62.0,29.75,South,180,3.0,8.0,85,0.08,,,0.08,,2013-06-01 10:02:00,
2013-06-01 06:13:00,67.0,62.0,29.75,South,180,3.0,8.0,85,0.08,,,0.08,,2013-06-01 10:13:00,
2013-06-01 06:22:00,66.0,62.0,29.72,SSE,158,1.0,10.0,87,0.08,,,0.08,,2013-06-01 10:22:00,
2013-06-01 06:33:00,66.0,62.0,29.72,SSE,158,0.0,0.0,87,0.06,,,0.08,,2013-06-01 10:33:00,
2013-06-01 06:42:00,65.0,61.0,29.71,SSW,203,0.0,0.0,88,0.02,,,0.08,,2013-06-01 10:42:00,
2013-06-01 06:52:00,65.0,61.0,29.71,SSW,203,0.0,0.0,88,0.02,,,0.08,,2013-06-01 10:52:00,
2013-06-01 07:03:00,65.0,61.0,29.72,WNW,293,0.0,0.0,88,0.00,,,0.08,,2013-06-01 11:03:00,
2013-06-01 07:11:00,65.0,61.0,29.72,South,180,0.0,0.0,88,0.00,,,0.08,,2013-06-01 11:11:00,
2013-06-01 07:21:00,65.0,61.0,29.72,South,180,0.0,0.0,88,0.00,,,0.08,,2013-06-01 11:21:00,
2013-06-01 07:32:00,66.0,62.0,29.72,SW,225,0.0,0.0,88,0.00,,,0.08,,2013-06-01 11:32:00,
2013-06-01 07:42:00,66.0,62.0,29.73,WSW,248,0.0,0.0,88,0.00,,,0.08,,2013-06-01 11:42:00,
2013-06-01 07:52:00,66.0,62.0,29.73,WSW,248,0.0,0.0,88,0.00,,,0.08,,2013-06-01 11:52:00,
2013-06-01 08:01:00,67.0,63.0,29.72,South,180,0.0,0.0,88,0.00,,,0.08,,2013-06-01 12:01:00,
2013-06-01 08:12:00,67.0,63.0,29.72,SSE,158,1.0,0.0,88,0.00,,,0.08,,2013-06-01 12:12:00,
2013-06-01 08:21:00,67.0,63.0,29.72,SSE,158,1.0,0.0,88,0.00,,,0.08,,2013-06-01 12:21:00,
2013-06-01 08:32:00,67.0,63.0,29.72,SSE,158,0.0,0.0,88,0.00,,,0.08,,2013-06-01 12:32:00,
2013-06-01 08:42:00,67.0,63.0,29.71,South,180,0.0,0.0,88,0.00,,,0.08,,2013-06-01 12:42:00,
2013-06-01 08:52:00,67.0,63.0,29.71,South,180,0.0,0.0,88,0.00,,,0.08,,2013-06-01 12:52:00,
2013-06-01 09:01:00,68.0,64.0,29.71,South,180,1.0,0.0,88,0.00,,,0.08,,2013-06-01 13:01:00,
2013-06-01 09:11:00,68.0,64.0,29.74,WSW,248,5.0,7.0,87,0.00,,,0.08,,2013-06-01 13:11:00,
2013-06-01 09:22:00,68.0,64.0,29.74,WSW,248,5.0,7.0,87,0.00,,,0.08,,2013-06-01 13:22:00,
2013-06-01 09:32:00,68.0,64.0,29.75,SSW,203,0.0,1.0,87,0.00,,,0.08,,2013-06-01 13:32:00,
2013-06-01 09:42:00,68.0,64.0,29.73,South,180,0.0,1.0,87,0.00,,,0.08,,2013-06-01 13:42:00,
2013-06-01 09:52:00,68.0,64.0,29.73,South,180,0.0,1.0,87,0.00,,,0.08,,2013-06-01 13:52:00,
2013-06-01 10:02:00,69.0,65.0,29.74,SSW,203,2.0,8.0,86,0.00,,,0.08,,2013-06-01 14:02:00,
2013-06-01 10:11:00,69.0,65.0,29.73,South,180,2.0,3.0,86,0.00,,,0.08,,2013-06-01 14:11:00,
2013-06-01 10:21:00,69.0,65.0,29.73,South,180,2.0,3.0,86,0.00,,,0.08,,2013-06-01 14:21:00,
2013-06-01 10:32:00,69.0,64.0,29.73,South,180,0.0,0.0,85,0.00,,,0.08,,2013-06-01 14:32:00,
2013-06-01 10:42:00,69.0,64.0,29.73,South,180,0.0,0.0,85,0.00,,,0.08,,2013-06-01 14:42:00,
2013-06-01 10:52:00,69.0,64.0,29.73,SW,225,2.0,3.0,85,0.00,,,0.08,,2013-06-01 14:52:00,
2013-06-01 11:02:00,71.0,66.0,29.72,SSW,203,1.0,0.0,84,0.00,,,0.08,,2013-06-01 15:02:00,
2013-06-01 11:11:00,71.0,66.0,29.72,SSW,203,1.0,0.0,84,0.00,,,0.08,,2013-06-01 15:11:00,
2013-06-01 11:21:00,73.0,67.0,29.72,SW,225,3.0,12.0,82,0.00,,,0.08,,2013-06-01 15:21:00,
2013-06-01 11:33:00,75.0,68.0,29.73,South,180,5.0,10.0,78,0.00,,,0.08,,2013-06-01 15:33:00,
2013-06-01 11:43:00,75.0,68.0,29.73,South,180,5.0,10.0,78,0.00,,,0.08,,2013-06-01 15:43:00,
2013-06-01 11:54:00,76.0,67.0,29.73,SSW,203,6.0,8.0,74,0.00,,,0.08,,2013-06-01 15:54:00,
2013-06-01 12:03:00,76.0,66.0,29.74,SSW,203,6.0,6.0,72,0.00,,,0.08,,2013-06-01 16:03:00,
2013-06-01 12:12:00,76.0,66.0,29.74,SSW,203,6.0,6.0,72,0.00,,,0.08,,2013-06-01 16:12:00,
2013-06-01 12:23:00,77.0,67.0,29.74,SW,225,1.0,0.0,72,0.00,,,0.08,,2013-06-01 16:23:00,
2013-06-01 12:33:00,77.0,66.0,29.75,SW,225,6.0,8.0,69,0.00,,,0.08,,2013-06-01 16:33:00,
2013-06-01 12:42:00,79.0,68.0,29.74,South,180,3.0,5.0,68,0.00,,,0.08,,2013-06-01 16:42:00,
2013-06-01 12:52:00,79.0,68.0,29.74,South,180,3.0,5.0,68,0.00,,,0.08,,2013-06-01 16:52:00,
2013-06-01 13:02:00,79.0,66.0,29.74,SE,135,3.0,6.0,65,0.00,,,0.08,,2013-06-01 17:02:00,
2013-06-01 13:12:00,79.0,66.0,29.74,SE,135,3.0,6.0,65,0.00,,,0.08,,2013-06-01 17:12:00,
2013-06-01 13:22:00,80.0,67.0,29.74,South,180,6.0,8.0,64,0.00,,,0.08,,2013-06-01 17:22:00,
2013-06-01 13:32:00,80.0,66.0,29.74,SSW,203,2.0,0.0,63,0.00,,,0.08,,2013-06-01 17:32:00,
2013-06-01 13:42:00,80.0,66.0,29.73,SSW,203,5.0,7.0,62,0.00,,,0.08,,2013-06-01 17:42:00,
2013-06-01 13:52:00,80.0,66.0,29.73,SSW,203,5.0,7.0,62,0.00,,,0.08,,2013-06-01 17:52:00,
2013-06-01 14:01:00,80.0,65.0,29.73,South,180,1.0,6.0,61,0.00,,,0.08,,2013-06-01 18:01:00,
2013-06-01 14:12:00,80.0,65.0,29.73,South,180,1.0,6.0,61,0.00,,,0.08,,2013-06-01 18:12:00,
2013-06-01 14:22:00,81.0,66.0,29.73,WSW,248,3.0,12.0,60,0.00,,,0.08,,2013-06-01 18:22:00,
2013-06-01 14:32:00,81.0,66.0,29.73,WSW,248,1.0,3.0,61,0.00,,,0.08,,2013-06-01 18:32:00,
2013-06-01 14:42:00,81.0,65.0,29.72,WSW,248,5.0,7.0,59,0.00,,,0.08,,2013-06-01 18:42:00,
2013-06-01 14:52:00,81.0,65.0,29.72,WSW,248,5.0,7.0,59,0.00,,,0.08,,2013-06-01 18:52:00,
2013-06-01 15:02:00,82.0,67.0,29.72,SSW,203,0.0,0.0,60,0.00,,,0.08,,2013-06-01 19:02:00,
2013-06-01 15:11:00,82.0,66.0,29.72,SW,225,5.0,7.0,59,0.00,,,0.08,,2013-06-01 19:11:00,
2013-06-01 15:21:00,82.0,66.0,29.72,SW,225,5.0,7.0,59,0.00,,,0.08,,2013-06-01 19:21:00,
2013-06-01 15:32:00,82.0,66.0,29.72,South,180,3.0,7.0,59,0.00,,,0.08,,2013-06-01 19:32:00,
2013-06-01 15:42:00,81.0,65.0,29.72,SW,225,0.0,3.0,59,0.00,,,0.08,,2013-06-01 19:42:00,
2013-06-01 15:52:00,81.0,65.0,29.72,SW,225,0.0,3.0,59,0.00,,,0.08,,2013-06-01 19:52:00,
2013-06-01 16:02:00,81.0,65.0,29.72,SSW,203,0.0,0.0,58,0.00,,,0.08,,2013-06-01 20:02:00,
2013-06-01 16:12:00,81.0,65.0,29.72,SSW,203,0.0,0.0,58,0.00,,,0.08,,2013-06-01 20:12:00,
2013-06-01 16:21:00,81.0,65.0,29.71,South,180,2.0,12.0,59,0.00,,,0.08,,2013-06-01 20:21:00,
2013-06-01 16:32:00,80.0,64.0,29.72,WSW,248,3.0,3.0,59,0.00,,,0.08,,2013-06-01 20:32:00,
2013-06-01 16:42:00,79.0,64.0,29.72,SSW,203,0.0,0.0,60,0.00,,,0.08,,2013-06-01 20:42:00,
2013-06-01 16:52:00,79.0,64.0,29.72,SSW,203,0.0,0.0,60,0.00,,,0.08,,2013-06-01 20:52:00,
2013-06-01 17:01:00,79.0,64.0,29.72,South,180,5.0,5.0,60,0.00,,,0.08,,2013-06-01 21:01:00,
2013-06-01 17:11:00,77.0,63.0,29.72,SSE,158,0.0,0.0,62,0.00,,,0.08,,2013-06-01 21:11:00,
2013-06-01 17:21:00,77.0,63.0,29.72,SSE,158,0.0,0.0,62,0.00,,,0.08,,2013-06-01 21:21:00,
2013-06-01 17:33:00,77.0,63.0,29.72,SSW,203,0.0,0.0,62,0.00,,,0.08,,2013-06-01 21:33:00,
2013-06-01 17:43:00,77.0,63.0,29.72,SSW,203,0.0,0.0,62,0.00,,,0.08,,2013-06-01 21:43:00,
2013-06-01 17:53:00,77.0,63.0,29.72,SW,225,0.0,0.0,63,0.00,,,0.08,,2013-06-01 21:53:00,
2013-06-01 18:03:00,77.0,64.0,29.72,South,180,0.0,0.0,64,0.00,,,0.08,,2013-06-01 22:03:00,
2013-06-01 18:12:00,77.0,63.0,29.71,SSW,203,0.0,0.0,63,0.00,,,0.08,,2013-06-01 22:12:00,
2013-06-01 18:23:00,77.0,63.0,29.71,SSW,203,0.0,0.0,63,0.00,,,0.08,,2013-06-01 22:23:00,
2013-06-01 18:33:00,76.0,63.0,29.72,SSW,203,0.0,0.0,64,0.00,,,0.08,,2013-06-01 22:33:00,
2013-06-01 18:42:00,76.0,63.0,29.71,SSW,203,0.0,0.0,65,0.00,,,0.08,,2013-06-01 22:42:00,
2013-06-01 18:53:00,76.0,63.0,29.71,SSW,203,0.0,0.0,65,0.00,,,0.08,,2013-06-01 22:53:00,
2013-06-01 19:02:00,76.0,64.0,29.71,SSW,203,0.0,0.0,66,0.00,,,0.08,,2013-06-01 23:02:00,
2013-06-01 19:11:00,76.0,64.0,29.71,South,180,1.0,0.0,67,0.00,,,0.08,,2013-06-01 23:11:00,
2013-06-01 19:22:00,76.0,64.0,29.71,South,180,1.0,0.0,67,0.00,,,0.08,,2013-06-01 23:22:00,
2013-06-01 19:32:00,75.0,64.0,29.71,SSW,203,0.0,0.0,68,0.00,,,0.08,,2013-06-01 23:32:00,
2013-06-01 19:42:00,75.0,64.0,29.71,SSW,203,0.0,0.0,68,0.00,,,0.08,,2013-06-01 23:42:00,
2013-06-01 19:52:00,75.0,64.0,29.71,South,180,0.0,3.0,68,0.00,,,0.08,,2013-06-01 23:52:00,
2013-06-01 20:02:00,74.0,63.0,29.71,SSW,203,0.0,0.0,68,0.00,,,0.08,,2013-06-02 00:02:00,
2013-06-01 20:11:00,74.0,63.0,29.71,SSW,203,0.0,0.0,68,0.00,,,0.08,,2013-06-02 00:11:00,
2013-06-01 20:22:00,74.0,63.0,29.71,SSW,203,3.0,8.0,69,0.00,,,0.08,,2013-06-02 00:22:00,
2013-06-01 20:32:00,74.0,64.0,29.71,SSW,203,0.0,0.0,70,0.00,,,0.08,,2013-06-02 00:32:00,
2013-06-01 20:42:00,74.0,64.0,29.71,SSW,203,0.0,0.0,70,0.00,,,0.08,,2013-06-02 00:42:00,
2013-06-01 20:52:00,73.0,63.0,29.71,SSW,203,0.0,0.0,70,0.00,,,0.08,,2013-06-02 00:52:00,
2013-06-01 21:01:00,73.0,63.0,29.70,South,180,0.0,1.0,71,0.00,,,0.08,,2013-06-02 01:01:00,
2013-06-01 21:11:00,73.0,63.0,29.70,South,180,0.0,1.0,71,0.00,,,0.08,,2013-06-02 01:11:00,
2013-06-01 21:21:00,72.0,62.0,29.70,SSW,203,0.0,0.0,71,0.00,,,0.08,,2013-06-02 01:21:00,
2013-06-01 21:32:00,72.0,62.0,29.70,SSW,203,0.0,0.0,72,0.00,,,0.08,,2013-06-02 01:32:00,
2013-06-01 21:42:00,71.0,62.0,29.69,South,180,0.0,0.0,72,0.00,,,0.08,,2013-06-02 01:42:00,
2013-06-01 21:52:00,71.0,62.0,29.69,South,180,0.0,0.0,72,0.00,,,0.08,,2013-06-02 01:52:00,
2013-06-01 22:01:00,71.0,62.0,29.69,SSW,203,0.0,0.0,73,0.00,,,0.08,,2013-06-02 02:01:00,
2013-06-01 22:12:00,70.0,61.0,29.69,SSW,203,0.0,0.0,74,0.00,,,0.08,,2013-06-02 02:12:00,
2013-06-01 22:21:00,70.0,61.0,29.69,SSW,203,0.0,0.0,74,0.00,,,0.08,,2013-06-02 02:21:00,
2013-06-01 22:32:00,70.0,61.0,29.69,South,180,0.0,0.0,74,0.00,,,0.08,,2013-06-02 02:32:00,
2013-06-01 22:42:00,70.0,61.0,29.68,South,180,0.0,1.0,74,0.00,,,0.08,,2013-06-02 02:42:00,
2013-06-01 22:52:00,70.0,61.0,29.68,South,180,0.0,1.0,74,0.00,,,0.08,,2013-06-02 02:52:00,
2013-06-01 23:02:00,70.0,61.0,29.68,SSW,203,0.0,0.0,74,0.00,,,0.08,,2013-06-02 03:02:00,
2013-06-01 23:11:00,70.0,61.0,29.68,SSW,203,0.0,0.0,74,0.00,,,0.08,,2013-06-02 03:11:00,
2013-06-01 23:21:00,69.0,61.0,29.67,SSE,158,0.0,0.0,75,0.00,,,0.08,,2013-06-02 03:21:00,
2013-06-01 23:33:00,69.0,61.0,29.66,SSE,158,0.0,0.0,75,0.00,,,0.08,,2013-06-02 03:33:00,
2013-06-01 23:43:00,68.0,60.0,29.66,South,180,0.0,0.0,76,0.00,,,0.08,,2013-06-02 03:43:00,
2013-06-01 23:53:00,68.0,60.0,29.66,South,180,0.0,0.0,76,0.00,,,0.08,,2013-06-02 03:53:00,